SCP
-0 -0 0 -0 -0 -0 -0 -0 -0 -0 0 -0 0 0 0 0 0 0 -0 -0 0 0 -0 -0 -0 0 -0 -0 -0 -0 -0 0 0 -0 0 -0 -0 -0 -0 -0 0 -0 -0
-0 -0 -0 -0 -0 -0 -0 -0 -0 -0 -0 -0 -0 -0 -0 -0 0 0 -0 -0 -0 0 0 -0 -0 -0 0 0 -0 -0 0 -0 -0 -0 0 -0 -0 -0 -0 -0 -0 -0 -0
-0 -0 -0 -0 -0 -0 -0 -0 -0 -0 -0 -0 -0 -0 -0 -0 -0 -0 -0 -0 -0 0 -0 -0 -0 -0 -0 -0 0 0 0 -0 -0 -0 -0 -0 -0 0 -0 -0 0 0 0
0 -0 -0 -0 -0 -0 0 0 -0 -0 -0 -0 -0 -0 -0 -0 0 -0 -0 -0 -0 0 -0 -0 -0 0 -0 -0 -0 -0 -0 -0 -0 0 0 0 0 -0 -0 -0 -0 -0 -0
0 -0 -0 0 0 0 0 0 0 0 0 0 -0 -0 -0 -0 0 0 -0 -0 -0 0 -0 -0 0 0 0 -0 -0 0 -0 -0 0 0 0 0 0 0 0 0 -0 -0 0
0 -0 -0 -0 -0 0 0 0 0 0 0 0 -0 0 -0 -0 -0 -0 -0 -0 -0 0 0 0 0 0 0 0 -0 -0 -0 -0 0 0 0 0 0 0 0 0 -0 -0 0
-0 -0 -0 -0 -0 0 0 0 0 0 0 0 0 0 -0 -0 -0 -0 -0 -0 -0 0 0 0 0 0 0 0 -0 0 -0 0 0 0 0 0 -0 0 -0 -0 -0 0 0
-0 -0 -0 0 0 0 0 0 0 0 0 0 0 -0 -0 -0 -0 0 0 0 -0 -0 -0 0 0 0 0 -0 -0 -0 -0 0 0 0 0 0 0 -0 -0 -0 -0 -0 -0
0 -0 -0 -0 -0 0 0 0 0 0 0 0 0 -0 -0 0 -0 0 0 0 -0 0 0 0 0 0 -0 -0 -0 -0 -0 0 0 0 0 0 0 -0 0 0 0 0 -0
0 0 -0 -0 -0 0 0 0 0 0 0 0 0 -0 -0 -0 -0 -0 -0 -0 0 0 0 0 -0 -0 -0 -0 -0 -0 -0 0 0 0 0 0 0 0 0 -0 0 0 0
-0 0 -0 -0 -0 0 0 -0 0 0 0 0 0 -0 -0 0 -0 -0 0 0 0 0 0 0 -0 -0 0 0 -0 -0 0 0 0 0 0 0 0 0 0 0 0 0 0
0 0 -0 -0 0 0 -0 -0 -0 -0 0 0 0 -0 0 0 0 -0 -0 0 -0 0 0 -0 -0 0 0 0 0 0 0 0 0 0 0 0 0 0 0 0 0 0 0
-0 -0 -0 -0 0 0 -0 -0 -0 -0 0 0 0 0 -0 -0 -0 -0 0 0 0 0 0 0 0 0 0 0 0 0 0 0 0 0 0 0 0 0 0 0 0 0 0
-0 0 -0 -0 -0 -0 -0 -0 -0 -0 0 0 0 0 0 0 0 0 0 0 0 0 0 0 0 0 0 0 0 0 0 0 0 0 0 0 0 0 0 0 0 0 0
-0 0 -0 -0 -0 -0 -0 -0 -0 -0 0 0 0 0 0 0 0 -0 0 0 0 0 0 0 0 0 0 0 0 0 0 0 0 0 0 0 0 0 0 0 0 0 0
-0 -0 -0 0 -0 -0 -0 -0 -0 0 -0 0 0 0 0 0 0 0 0 0 0 0 0 0 0 0 0 0 0 0 0 0 0 0 0 0 0 0 0 0 0 0 0
-0 -0 -0 -0 -0 -0 -0 -0 -0 -0 0 0 0 0 0 0 0 0 0 0 0 0 0 0 0 0 0 0 0 0 0 0 0 0 0 0 0 0 0 0 0 0 0
-0 -0 -0 -0 -0 0 -0 -0 -0 -0 0 0 0 0 0 0 0 0 0 0 0 0 0 0 0 0 0 0 0 0 0 0 0 0 0 0 0 0 0 0 0 0 0
-0 -0 -0 -0 -0 -0 -0 -0 -0 -0 0 0 0 0 0 0 0 0 0 0 0 0 0 0 0 0 0 0 0 0 0 0 0 0 0 0 0 0 0 0 0 0 0
0 -0 -0 -0 -0 -0 -0 -0 -0 -0 0 0 0 0 0 0 0 0 0 0 0 0 0 0 0 0 0 0 0 0 0 0 0 0 0 0 0 0 0 0 0 0 0
0 0 -0 -0 -0 -0 -0 -0 -0 0 -0 -0 0 0 0 0 0 0 0 0 0 0 0 0 0 0 0 0 0 0 0 0 0 0 0 0 0 0 0 0 0 0 0
0 0 -0 -0 -0 -0 -0 -0 0 -0 -0 -0 -0 0 0 0 0 0 0 0 0 0 0 0 0 0 0 0 0 0 0 0 0 0 0 0 0 0 0 0 0 1 1
0 0 0 0 0 -0 -0 -0 0 -0 0 0 -0 -0 -0 0 0 0 0 0 0 0 0 -0 0 0 0 0 0 0 0 0 0 0 0 0 0 0 0 0 0 0 0
0 0 0 0 0 0 -0 0 -0 0 0 0 -0 -0 -0 -0 -0 -0 0 0 0 0 0 -0 -0 0 0 0 0 0 0 0 0 0 0 0 0 0 0 0 0 0 0
0 0 0 0 0 0 0 0 0 0 0 0 -0 -0 -0 -0 -0 -0 -0 0 0 0 0 0 -0 0 0 0 0 0 0 0 0 0 0 0 0 0 0 0 0 0 0
0 0 0 0 0 0 0 0 0 0 0 0 0 -0 -0 -0 -0 -0 -0 -0 0 0 0 0 0 0 0 0 0 0 0 0 0 0 0 0 0 0 0 0 0 0 0
Wind_Speed_500mb
55 45 42 38 36 32 31 29 26 23 21 17 15 14 13 12 14 14 15 16 18 20 20 22 22 22 28 28 27 29 30 31 32 35 34 34 34 34 37 37 39 35 36
56 50 44 39 36 31 30 27 24 19 16 14 13 12 11 10 10 10 11 13 13 16 19 20 22 23 26 26 26 27 27 30 31 29 34 35 34 37 35 34 33 32 31
57 50 46 39 33 26 26 22 19 15 13 13 12 10 10 9 9 8 8 13 13 14 15 18 19 22 25 25 27 27 25 25 24 31 35 30 34 34 32 34 34 32 32
56 51 44 36 29 22 19 17 16 14 13 13 13 13 13 12 11 11 9 12 14 14 16 17 18 21 26 26 25 23 23 24 27 30 31 28 28 29 29 30 32 30 29
53 47 39 32 27 20 15 14 15 12 13 13 15 13 13 13 13 13 15 15 15 17 16 16 19 21 24 24 27 22 25 26 28 29 29 29 28 27 27 27 28 27 27
50 41 35 31 27 20 16 16 14 13 15 16 17 15 15 14 14 16 15 15 14 19 16 17 20 23 19 21 25 28 26 27 28 29 28 30 25 25 26 23 24 27 25
49 39 33 30 25 20 17 14 13 15 15 18 16 16 16 17 17 19 15 17 17 19 19 22 23 19 19 20 20 24 23 25 24 24 25 24 26 22 21 24 25 23 24
46 39 32 27 25 22 18 13 15 16 16 17 15 17 17 16 19 18 19 19 20 20 25 25 23 20 18 21 18 21 23 23 23 23 24 23 22 19 22 22 21 21 20
42 38 33 30 25 20 19 18 17 17 16 14 14 15 16 18 18 20 20 22 18 24 27 25 21 21 22 21 17 17 21 23 23 21 20 19 18 20 19 20 18 20 20
40 35 34 30 25 23 21 20 19 18 15 13 11 14 16 19 21 22 23 22 18 26 27 25 23 20 20 20 19 18 20 22 21 21 18 17 17 19 18 17 17 18 21
37 35 33 30 28 24 22 22 21 18 14 13 12 15 18 19 20 21 20 19 19 25 25 22 21 23 22 21 20 16 17 18 18 16 15 18 17 15 14 14 16 17 16
42 37 32 31 29 27 24 24 23 21 15 15 15 20 21 21 21 20 20 18 19 22 25 18 20 22 22 18 18 17 15 16 15 14 12 16 14 14 10 11 14 15 16
44 37 34 32 31 29 26 27 26 23 21 19 20 21 21 20 19 18 18 19 20 21 23 19 15 18 15 13 18 19 15 16 12 12 12 18 13 8 9 12 12 13 14
45 38 35 33 32 29 27 28 28 29 26 20 19 20 19 18 18 18 16 18 19 23 21 18 13 9 9 11 15 16 14 14 13 11 9 14 10 8 11 11 12 12 12
43 40 37 35 33 30 30 32 32 25 23 19 21 23 25 21 18 16 17 17 17 17 15 13 9 7 6 9 12 14 12 12 15 12 9 12 11 9 10 12 11 10 10
41 40 38 35 33 32 32 33 31 26 24 22 18 17 16 13 12 15 17 17 11 11 12 10 8 11 15 13 14 14 12 11 16 16 12 10 10 9 11 10 9 9 10
41 40 40 37 35 34 35 35 28 28 22 20 16 11 12 9 8 7 11 14 8 13 11 10 9 6 13 13 13 13 14 16 20 20 18 17 16 14 11 12 12 12 12
44 43 42 42 38 37 38 33 28 23 22 18 14 11 9 10 7 4 8 12 11 13 14 10 10 12 5 13 7 7 11 16 20 19 19 19 20 17 13 11 13 14 14
45 45 46 43 41 38 36 33 30 23 19 15 12 10 11 11 9 6 5 8 12 15 17 14 12 11 13 11 11 11 11 12 13 13 13 13 15 17 14 10 10 11 12
42 46 47 46 45 41 38 35 30 24 20 16 13 10 11 11 13 10 8 9 13 16 22 16 14 14 14 13 12 11 8 6 6 8 11 10 10 11 12 12 13 14 12
42 51 51 51 50 47 41 37 34 27 21 18 16 12 11 10 13 15 12 11 16 21 21 18 16 13 11 7 8 7 6 4 4 4 5 7 8 9 12 13 13 14 14
47 55 54 55 52 47 40 35 33 28 23 18 18 12 11 10 9 12 15 14 14 18 21 21 19 14 11 8 7 8 4 3 6 5 7 6 3 7 9 10 10 9 10
55 59 59 53 51 48 40 35 32 30 27 23 23 17 13 10 8 12 13 15 11 16 20 22 18 12 11 6 4 8 7 9 11 11 6 4 6 6 8 9 7 6 6
65 62 63 59 56 51 44 39 37 35 34 30 22 17 15 12 11 12 12 12 13 14 20 21 14 12 10 5 2 4 10 12 7 9 13 11 8 8 8 8 7 8 5
64 71 68 64 61 56 52 44 40 40 36 27 26 23 19 13 13 12 11 16 12 13 17 19 16 8 11 7 4 5 10 12 10 9 9 14 11 10 11 11 10 9 6
64 71 76 73 68 63 58 55 48 41 40 37 32 29 27 21 16 17 15 14 14 15 13 21 20 14 14 9 7 5 5 4 7 7 10 16 19 14 13 11 12 9 6
Wind_Direction_500mb
163 155 146 140 129 124 125 122 121 117 120 124 126 126 120 110 109 113 116 114 109 104 96 92 93 86 87 84 84 84 82 79 83 86 85 88 88 94 87 85 90 84 89
158 156 151 145 133 130 128 125 120 113 113 120 116 119 119 121 131 133 127 125 121 117 108 103 98 88 94 93 93 89 89 87 82 93 87 85 91 90 86 88 97 89 90
157 155 154 151 143 130 129 133 130 121 115 121 118 105 105 108 122 142 146 133 127 123 123 111 105 105 105 97 95 93 92 92 91 98 91 85 95 88 88 85 93 88 83
157 157 157 157 150 137 125 115 120 123 116 118 112 114 103 100 111 107 136 136 134 125 125 116 107 108 110 93 89 92 96 94 93 102 92 95 93 97 91 87 90 84 81
161 159 159 161 161 152 131 120 124 126 124 126 124 113 111 98 109 114 110 125 132 139 129 121 116 117 115 104 92 88 92 92 91 95 94 95 95 93 90 83 82 82 86
163 161 165 168 166 162 150 139 135 135 134 122 118 114 112 99 103 109 108 120 132 136 138 132 117 115 105 99 87 81 91 93 91 93 93 97 98 87 84 86 85 81 79
161 162 166 165 166 163 155 149 146 142 128 123 119 115 115 106 107 110 115 116 124 132 136 133 130 112 107 97 96 82 87 90 90 88 95 93 92 83 81 87 82 78 77
161 161 165 164 161 160 159 163 152 147 131 127 124 116 111 110 112 116 107 105 119 131 132 127 120 113 102 108 99 81 88 91 91 87 99 92 85 87 90 87 80 77 69
163 164 163 161 160 161 159 156 153 142 136 133 126 119 114 113 116 119 115 105 120 128 131 123 110 104 117 107 89 86 97 94 92 91 90 93 83 87 86 81 72 73 76
165 168 163 160 160 159 159 156 150 140 132 131 132 124 130 117 109 111 112 112 119 127 128 117 106 102 104 96 80 90 98 98 97 93 90 94 82 86 84 78 67 75 70
168 167 167 164 163 162 156 153 146 140 141 136 135 139 138 125 117 111 112 109 116 131 128 118 103 97 100 87 77 81 98 102 103 96 92 88 88 87 80 62 71 75 69
171 171 168 164 164 162 159 156 149 146 139 126 128 141 139 130 123 121 115 112 108 130 132 120 106 105 93 83 69 72 87 103 103 100 97 91 84 81 72 63 65 69 66
172 172 172 169 166 165 161 159 154 144 135 125 119 124 137 132 125 118 115 109 108 118 133 119 106 113 103 83 68 61 79 98 104 101 100 85 81 67 64 63 64 61 58
175 174 174 171 169 166 162 159 155 142 132 125 117 118 124 130 129 128 118 110 112 119 129 118 110 99 91 78 67 58 70 92 97 98 100 115 101 79 73 67 61 54 47
178 175 176 174 169 167 161 160 159 149 153 134 119 115 110 111 129 137 130 117 122 119 128 121 95 58 148 108 80 63 71 93 94 92 95 93 97 86 79 64 56 51 45
180 177 180 177 173 168 165 161 163 158 146 137 134 135 127 122 124 129 139 133 141 146 151 146 135 63 110 116 99 70 67 88 93 88 86 79 77 73 68 64 59 47 40
184 179 181 179 174 168 165 158 156 165 159 150 143 141 128 137 140 158 162 185 179 183 157 184 178 123 80 131 112 74 75 91 95 90 82 71 58 51 53 59 54 44 34
188 183 179 179 176 171 166 168 162 157 156 151 151 171 157 151 133 152 163 171 179 174 185 156 160 175 86 116 139 121 96 94 96 94 83 70 60 61 60 56 47 40 32
192 188 181 181 175 172 172 173 172 168 162 164 157 154 163 168 147 112 112 151 170 180 180 166 153 149 139 123 108 119 105 100 99 98 87 67 54 51 48 33 23 18 19
198 192 187 184 178 173 174 177 180 182 184 187 187 185 159 166 149 138 140 156 167 163 168 178 159 138 138 122 100 85 74 77 77 57 30 38 28 15 17 22 23 15 9
204 198 193 187 183 183 186 190 194 195 193 199 203 205 196 186 163 144 142 142 158 169 181 180 179 171 156 129 88 58 54 77 63 36 19 353 348 346 347 350 352 360 12
203 198 195 193 191 193 200 202 205 201 191 185 186 183 170 178 172 172 159 162 166 183 184 188 177 166 160 132 70 65 75 59 2 318 331 329 301 329 343 343 350 5 14
211 207 202 199 198 198 206 206 209 205 197 190 189 179 163 159 157 180 176 168 181 194 183 180 175 174 174 176 64 70 43 34 23 38 37 323 314 337 347 344 358 4 28
217 216 214 212 210 209 208 213 212 216 211 204 193 183 182 185 173 170 192 188 172 177 169 171 178 174 179 192 20 19 5 0 3 16 39 46 33 9 5 357 358 350 356
222 222 221 221 219 218 217 219 220 221 229 220 208 196 196 192 194 196 202 201 193 184 198 192 184 182 189 198 253 333 5 357 12 23 24 18 32 16 9 360 359 1 3
227 227 224 226 227 224 225 225 228 226 226 227 221 213 206 204 209 208 197 199 203 198 208 211 202 207 207 223 251 297 313 341 358 24 25 17 38 54 44 23 9 359 12
Wind_Speed_850mb
55 45 42 38 36 32 31 29 26 23 21 17 15 14 13 12 14 14 15 16 18 20 20 22 22 22 28 28 27 29 30 31 32 35 34 34 34 34 37 37 39 35 36
56 50 44 39 36 31 30 27 24 19 16 14 13 12 11 10 10 10 11 13 13 16 19 20 22 23 26 26 26 27 27 30 31 29 34 35 34 37 35 34 33 32 31
57 50 46 39 33 26 26 22 19 15 13 13 12 10 10 9 9 8 8 13 13 14 15 18 19 22 25 25 27 27 25 25 24 31 35 30 34 34 32 34 34 32 32
56 51 44 36 29 22 19 17 16 14 13 13 13 13 13 12 11 11 9 12 14 14 16 17 18 21 26 26 25 23 23 24 27 30 31 28 28 29 29 30 32 30 29
53 47 39 32 27 20 15 14 15 12 13 13 15 13 13 13 13 13 15 15 15 17 16 16 19 21 24 24 27 22 25 26 28 29 29 29 28 27 27 27 28 27 27
50 41 35 31 27 20 16 16 14 13 15 16 17 15 15 14 14 16 15 15 14 19 16 17 20 23 19 21 25 28 26 27 28 29 28 30 25 25 26 23 24 27 25
49 39 33 30 25 20 17 14 13 15 15 18 16 16 16 17 17 19 15 17 17 19 19 22 23 19 19 20 20 24 23 25 24 24 25 24 26 22 21 24 25 23 24
46 39 32 27 25 22 18 13 15 16 16 17 15 17 17 16 19 18 19 19 20 20 25 25 23 20 18 21 18 21 23 23 23 23 24 23 22 19 22 22 21 21 20
42 38 33 30 25 20 19 18 17 17 16 14 14 15 16 18 18 20 20 22 18 24 27 25 21 21 22 21 17 17 21 23 23 21 20 19 18 20 19 20 18 20 20
40 35 34 30 25 23 21 20 19 18 15 13 11 14 16 19 21 22 23 22 18 26 27 25 23 20 20 20 19 18 20 22 21 21 18 17 17 19 18 17 17 18 21
37 35 33 30 28 24 22 22 21 18 14 13 12 15 18 19 20 21 20 19 19 25 25 22 21 23 22 21 20 16 17 18 18 16 15 18 17 15 14 14 16 17 16
42 37 32 31 29 27 24 24 23 21 15 15 15 20 21 21 21 20 20 18 19 22 25 18 20 22 22 18 18 17 15 16 15 14 12 16 14 14 10 11 14 15 16
44 37 34 32 31 29 26 27 26 23 21 19 20 21 21 20 19 18 18 19 20 21 23 19 15 18 15 13 18 19 15 16 12 12 12 18 13 8 9 12 12 13 14
45 38 35 33 32 29 27 28 28 29 26 20 19 20 19 18 18 18 16 18 19 23 21 18 13 9 9 11 15 16 14 14 13 11 9 14 10 8 11 11 12 12 12
43 40 37 35 33 30 30 32 32 25 23 19 21 23 25 21 18 16 17 17 17 17 15 13 9 7 6 9 12 14 12 12 15 12 9 12 11 9 10 12 11 10 10
41 40 38 35 33 32 32 33 31 26 24 22 18 17 16 13 12 15 17 17 11 11 12 10 8 11 15 13 14 14 12 11 16 16 12 10 10 9 11 10 9 9 10
41 40 40 37 35 34 35 35 28 28 22 20 16 11 12 9 8 7 11 14 8 13 11 10 9 6 13 13 13 13 14 16 20 20 18 17 16 14 11 12 12 12 12
44 43 42 42 38 37 38 33 28 23 22 18 14 11 9 10 7 4 8 12 11 13 14 10 10 12 5 13 7 7 11 16 20 19 19 19 20 17 13 11 13 14 14
45 45 46 43 41 38 36 33 30 23 19 15 12 10 11 11 9 6 5 8 12 15 17 14 12 11 13 11 11 11 11 12 13 13 13 13 15 17 14 10 10 11 12
42 46 47 46 45 41 38 35 30 24 20 16 13 10 11 11 13 10 8 9 13 16 22 16 14 14 14 13 12 11 8 6 6 8 11 10 10 11 12 12 13 14 12
42 51 51 51 50 47 41 37 34 27 21 18 16 12 11 10 13 15 12 11 16 21 21 18 16 13 11 7 8 7 6 4 4 4 5 7 8 9 12 13 13 14 14
47 55 54 55 52 47 40 35 33 28 23 18 18 12 11 10 9 12 15 14 14 18 21 21 19 14 11 8 7 8 4 3 6 5 7 6 3 7 9 10 10 9 10
55 59 59 53 51 48 40 35 32 30 27 23 23 17 13 10 8 12 13 15 11 16 20 22 18 12 11 6 4 8 7 9 11 11 6 4 6 6 8 9 7 6 6
65 62 63 59 56 51 44 39 37 35 34 30 22 17 15 12 11 12 12 12 13 14 20 21 14 12 10 5 2 4 10 12 7 9 13 11 8 8 8 8 7 8 5
64 71 68 64 61 56 52 44 40 40 36 27 26 23 19 13 13 12 11 16 12 13 17 19 16 8 11 7 4 5 10 12 10 9 9 14 11 10 11 11 10 9 6
64 71 76 73 68 63 58 55 48 41 40 37 32 29 27 21 16 17 15 14 14 15 13 21 20 14 14 9 7 5 5 4 7 7 10 16 19 14 13 11 12 9 6
Wind_Direction_850mb
163 155 146 140 129 124 125 122 121 117 120 124 126 126 120 110 109 113 116 114 109 104 96 92 93 86 87 84 84 84 82 79 83 86 85 88 88 94 87 85 90 84 89
158 156 151 145 133 130 128 125 120 113 113 120 116 119 119 121 131 133 127 125 121 117 108 103 98 88 94 93 93 89 89 87 82 93 87 85 91 90 86 88 97 89 90
157 155 154 151 143 130 129 133 130 121 115 121 118 105 105 108 122 142 146 133 127 123 123 111 105 105 105 97 95 93 92 92 91 98 91 85 95 88 88 85 93 88 83
157 157 157 157 150 137 125 115 120 123 116 118 112 114 103 100 111 107 136 136 134 125 125 116 107 108 110 93 89 92 96 94 93 102 92 95 93 97 91 87 90 84 81
161 159 159 161 161 152 131 120 124 126 124 126 124 113 111 98 109 114 110 125 132 139 129 121 116 117 115 104 92 88 92 92 91 95 94 95 95 93 90 83 82 82 86
163 161 165 168 166 162 150 139 135 135 134 122 118 114 112 99 103 109 108 120 132 136 138 132 117 115 105 99 87 81 91 93 91 93 93 97 98 87 84 86 85 81 79
161 162 166 165 166 163 155 149 146 142 128 123 119 115 115 106 107 110 115 116 124 132 136 133 130 112 107 97 96 82 87 90 90 88 95 93 92 83 81 87 82 78 77
161 161 165 164 161 160 159 163 152 147 131 127 124 116 111 110 112 116 107 105 119 131 132 127 120 113 102 108 99 81 88 91 91 87 99 92 85 87 90 87 80 77 69
163 164 163 161 160 161 159 156 153 142 136 133 126 119 114 113 116 119 115 105 120 128 131 123 110 104 117 107 89 86 97 94 92 91 90 93 83 87 86 81 72 73 76
165 168 163 160 160 159 159 156 150 140 132 131 132 124 130 117 109 111 112 112 119 127 128 117 106 102 104 96 80 90 98 98 97 93 90 94 82 86 84 78 67 75 70
168 167 167 164 163 162 156 153 146 140 141 136 135 139 138 125 117 111 112 109 116 131 128 118 103 97 100 87 77 81 98 102 103 96 92 88 88 87 80 62 71 75 69
171 171 168 164 164 162 159 156 149 146 139 126 128 141 139 130 123 121 115 112 108 130 132 120 106 105 93 83 69 72 87 103 103 100 97 91 84 81 72 63 65 69 66
172 172 172 169 166 165 161 159 154 144 135 125 119 124 137 132 125 118 115 109 108 118 133 119 106 113 103 83 68 61 79 98 104 101 100 85 81 67 64 63 64 61 58
175 174 174 171 169 166 162 159 155 142 132 125 117 118 124 130 129 128 118 110 112 119 129 118 110 99 91 78 67 58 70 92 97 98 100 115 101 79 73 67 61 54 47
178 175 176 174 169 167 161 160 159 149 153 134 119 115 110 111 129 137 130 117 122 119 128 121 95 58 148 108 80 63 71 93 94 92 95 93 97 86 79 64 56 51 45
180 177 180 177 173 168 165 161 163 158 146 137 134 135 127 122 124 129 139 133 141 146 151 146 135 63 110 116 99 70 67 88 93 88 86 79 77 73 68 64 59 47 40
184 179 181 179 174 168 165 158 156 165 159 150 143 141 128 137 140 158 162 185 179 183 157 184 178 123 80 131 112 74 75 91 95 90 82 71 58 51 53 59 54 44 34
188 183 179 179 176 171 166 168 162 157 156 151 151 171 157 151 133 152 163 171 179 174 185 156 160 175 86 116 139 121 96 94 96 94 83 70 60 61 60 56 47 40 32
192 188 181 181 175 172 172 173 172 168 162 164 157 154 163 168 147 112 112 151 170 180 180 166 153 149 139 123 108 119 105 100 99 98 87 67 54 51 48 33 23 18 19
198 192 187 184 178 173 174 177 180 182 184 187 187 185 159 166 149 138 140 156 167 163 168 178 159 138 138 122 100 85 74 77 77 57 30 38 28 15 17 22 23 15 9
204 198 193 187 183 183 186 190 194 195 193 199 203 205 196 186 163 144 142 142 158 169 181 180 179 171 156 129 88 58 54 77 63 36 19 353 348 346 347 350 352 360 12
203 198 195 193 191 193 200 202 205 201 191 185 186 183 170 178 172 172 159 162 166 183 184 188 177 166 160 132 70 65 75 59 2 318 331 329 301 329 343 343 350 5 14
211 207 202 199 198 198 206 206 209 205 197 190 189 179 163 159 157 180 176 168 181 194 183 180 175 174 174 176 64 70 43 34 23 38 37 323 314 337 347 344 358 4 28
217 216 214 212 210 209 208 213 212 216 211 204 193 183 182 185 173 170 192 188 172 177 169 171 178 174 179 192 20 19 5 0 3 16 39 46 33 9 5 357 358 350 356
222 222 221 221 219 218 217 219 220 221 229 220 208 196 196 192 194 196 202 201 193 184 198 192 184 182 189 198 253 333 5 357 12 23 24 18 32 16 9 360 359 1 3
227 227 224 226 227 224 225 225 228 226 226 227 221 213 206 204 209 208 197 199 203 198 208 211 202 207 207 223 251 297 313 341 358 24 25 17 38 54 44 23 9 359 12